User: anonymous   Login
Location: Unspecified
(0.0000°N, 0.0000°E)
Time: 21:30:12
(UTC+00:00)
Language:

BEESAT 2 - Orbit

View from above orbital plane
View from above orbital plane
View from above satellite
View from above satellite

Ground track
Ground track

The orbit data is extracted from the following two-line orbital elements,

1 39136U 13015G   18343.95763901 +.00000799 +00000-0 +50728-4 0  9992
2 39136 064.8703 297.0736 0009808 251.3511 108.6550 15.16514041310859
Epoch (UTC): 09 December 2018 22:59:00
Eccentricity: 0.0009808
inclination: 64.8703°
perigee height: 509 km
apogee height: 523 km
right ascension of ascending node: 297.0736°
argument of perigee: 251.3511°
revolutions per day: 15.16514041
mean anomaly at epoch: 108.6550°
orbit number at epoch: 31085

The dashed part of the orbit path shows where the satellite is in the earth's shadow,  

DLR